Вернуться в каталог

CZ-6A DEB

АктивенPO
NORAD 60780·DEBRIS·🇨🇳 China

Запущен Aug 6, 2024 с Taiyuan Satellite Launch Center

Loading…

Ближайшие Пролёты (ближайшие 24 часа)

TLE

СвежийSource: Space-Track

Эпоха: Sep 14, 2026, 11:04 UTC

1 60780U 24140FF  26257.46161637  .00000304  00000-0  92664-4 0  9996
2 60780  88.9603 258.8010 0084344  68.7653 292.2530 14.37275211109601

Отслеживайте CZ-6A DEB в реальном времени с AllMySat

Download on the App Store